contact:dominique.lefevre@mio.osupytheas.fr, maurice.libes@osupytheas.fr, didier.mallarino@osupytheas.fr
Project:EMSO http://www.emso-fr.org/EMSO-France
Depth: 2436.0 m
Title:EMSO Ligure Ouest : Data MII capteur CSTAR
DateTime,Latitude,Longitude,Instrument_Serial,Reference_Counts,Signal_Counts,Corrected_Signal_raw_counts,Calculated_Beam_c_inverse_meters,Internal_thermistor_counts
DateTime,Latitude,Longitude,Instrument_Serial,Reference_Counts,Signal_Counts,Corrected_Signal_raw_counts,Calculated_Beam_c_inverse_meters,Internal_thermistor_counts
2019-08-16T00:00:01,42.805,6.029,CST-1368DR,8291,11599,15419,0.051,551
2019-08-16T00:03:02,42.805,6.029,CST-1368DR,8291,11600,15421,0.050,551
2019-08-16T00:06:04,42.805,6.029,CST-1368DR,8291,11603,15425,0.049,551
2019-08-16T00:09:06,42.805,6.029,CST-1368DR,8290,11596,15417,0.051,551
2019-08-16T00:12:07,42.805,6.029,CST-1368DR,8291,11599,15419,0.051,550
2019-08-16T00:15:09,42.805,6.029,CST-1368DR,8291,11602,15424,0.049,551
2019-08-16T00:18:11,42.805,6.029,CST-1368DR,8290,11600,15422,0.050,550
2019-08-16T00:21:12,42.805,6.029,CST-1368DR,8291,11598,15419,0.051,551
2019-08-16T00:24:14,42.805,6.029,CST-1368DR,8290,11601,15424,0.049,550
2019-08-16T00:27:15,42.805,6.029,CST-1368DR,8290,11601,15424,0.049,551
2019-08-16T00:30:17,42.805,6.029,CST-1368DR,8291,11603,15425,0.049,551
2019-08-16T00:33:19,42.805,6.029,CST-1368DR,8290,11600,15423,0.050,551
2019-08-16T00:36:20,42.805,6.029,CST-1368DR,8290,11602,15425,0.049,551
2019-08-16T00:39:22,42.805,6.029,CST-1368DR,8290,11602,15425,0.049,551
2019-08-16T00:42:24,42.805,6.029,CST-1368DR,8290,11601,15424,0.049,550
2019-08-16T00:45:25,42.805,6.029,CST-1368DR,8290,11600,15423,0.050,551
2019-08-16T00:48:27,42.805,6.029,CST-1368DR,8290,11592,15412,0.053,551
2019-08-16T00:51:29,42.805,6.029,CST-1368DR,8290,11599,15421,0.050,551
2019-08-16T00:54:30,42.805,6.029,CST-1368DR,8290,11600,15422,0.050,551
2019-08-16T00:57:32,42.805,6.029,CST-1368DR,8290,11600,15422,0.050,551
2019-08-16T01:00:34,42.805,6.029,CST-1368DR,8290,11596,15417,0.051,551
2019-08-16T01:03:35,42.805,6.029,CST-1368DR,8290,11601,15424,0.049,551
2019-08-16T01:06:37,42.805,6.029,CST-1368DR,8290,11600,15423,0.050,551
2019-08-16T01:09:39,42.805,6.029,CST-1368DR,8290,11599,15421,0.050,551
2019-08-16T01:12:40,42.805,6.029,CST-1368DR,8290,11602,15425,0.049,551
2019-08-16T01:15:42,42.805,6.029,CST-1368DR,8290,11600,15423,0.050,551
2019-08-16T01:18:44,42.805,6.029,CST-1368DR,8290,11600,15422,0.050,551
2019-08-16T01:21:45,42.805,6.029,CST-1368DR,8290,11601,15423,0.050,551
2019-08-16T01:24:47,42.805,6.029,CST-1368DR,8290,11601,15424,0.049,551
2019-08-16T01:27:48,42.805,6.029,CST-1368DR,8290,11602,15425,0.049,551
2019-08-16T01:30:50,42.805,6.029,CST-1368DR,8290,11601,15424,0.049,550
2019-08-16T01:33:52,42.805,6.029,CST-1368DR,8290,11601,15424,0.049,550
2019-08-16T01:36:53,42.805,6.029,CST-1368DR,8290,11598,15420,0.051,551
2019-08-16T01:39:55,42.805,6.029,CST-1368DR,8290,11599,15421,0.050,551
2019-08-16T01:42:57,42.805,6.029,CST-1368DR,8290,11601,15424,0.049,551
2019-08-16T01:45:58,42.805,6.029,CST-1368DR,8290,11599,15421,0.050,551
2019-08-16T01:49:00,42.805,6.029,CST-1368DR,8290,11601,15423,0.050,550
2019-08-16T01:52:02,42.805,6.029,CST-1368DR,8290,11601,15424,0.049,551
2019-08-16T01:55:03,42.805,6.029,CST-1368DR,8290,11600,15423,0.050,551
2019-08-16T01:58:05,42.805,6.029,CST-1368DR,8290,11600,15423,0.050,551
2019-08-16T02:01:07,42.805,6.029,CST-1368DR,8289,11600,15424,0.049,551
2019-08-16T02:04:08,42.805,6.029,CST-1368DR,8289,11599,15423,0.050,551
2019-08-16T02:07:10,42.805,6.029,CST-1368DR,8289,11600,15425,0.049,551
2019-08-16T02:10:11,42.805,6.029,CST-1368DR,8290,11599,15421,0.050,551
2019-08-16T02:13:13,42.805,6.029,CST-1368DR,8289,11596,15420,0.051,550
2019-08-16T02:16:15,42.805,6.029,CST-1368DR,8289,11595,15418,0.051,551
2019-08-16T02:19:16,42.805,6.029,CST-1368DR,8289,11595,15418,0.051,551
2019-08-16T02:22:18,42.805,6.029,CST-1368DR,8289,11598,15421,0.050,550
2019-08-16T02:25:20,42.805,6.029,CST-1368DR,8289,11598,15421,0.050,551
2019-08-16T02:28:21,42.805,6.029,CST-1368DR,8289,11598,15422,0.050,551
2019-08-16T02:31:23,42.805,6.029,CST-1368DR,8289,11597,15421,0.050,551
2019-08-16T02:34:25,42.805,6.029,CST-1368DR,8289,11597,15421,0.050,551
2019-08-16T02:37:26,42.805,6.029,CST-1368DR,8289,11598,15421,0.050,551
2019-08-16T02:40:28,42.805,6.029,CST-1368DR,8289,11598,15422,0.050,551
2019-08-16T02:43:29,42.805,6.029,CST-1368DR,8289,11598,15421,0.050,551
2019-08-16T02:46:31,42.805,6.029,CST-1368DR,8289,11598,15422,0.050,551
2019-08-16T02:49:33,42.805,6.029,CST-1368DR,8289,11598,15422,0.050,551
2019-08-16T02:52:34,42.805,6.029,CST-1368DR,8289,11600,15424,0.049,551
2019-08-16T02:55:36,42.805,6.029,CST-1368DR,8289,11598,15422,0.050,551
2019-08-16T02:58:38,42.805,6.029,CST-1368DR,8289,11599,15423,0.050,551
2019-08-16T03:01:39,42.805,6.029,CST-1368DR,8289,11599,15423,0.050,551
2019-08-16T03:04:41,42.805,6.029,CST-1368DR,8289,11598,15421,0.050,550
2019-08-16T03:07:43,42.805,6.029,CST-1368DR,8289,11598,15422,0.050,551
2019-08-16T03:10:44,42.805,6.029,CST-1368DR,8289,11597,15421,0.050,551
2019-08-16T03:13:46,42.805,6.029,CST-1368DR,8289,11597,15421,0.050,551
2019-08-16T03:16:48,42.805,6.029,CST-1368DR,8289,11598,15421,0.050,551
2019-08-16T03:19:49,42.805,6.029,CST-1368DR,8289,11596,15420,0.051,551
2019-08-16T03:22:51,42.805,6.029,CST-1368DR,8289,11598,15422,0.050,551
2019-08-16T03:25:52,42.805,6.029,CST-1368DR,8289,11598,15421,0.050,551
2019-08-16T03:28:54,42.805,6.029,CST-1368DR,8289,11598,15422,0.050,551
2019-08-16T03:31:56,42.805,6.029,CST-1368DR,8289,11597,15421,0.050,551
2019-08-16T03:34:57,42.805,6.029,CST-1368DR,8288,11594,15419,0.051,551
2019-08-16T03:37:59,42.805,6.029,CST-1368DR,8289,11595,15418,0.051,551
2019-08-16T03:41:01,42.805,6.029,CST-1368DR,8288,11599,15424,0.049,551
2019-08-16T03:44:02,42.805,6.029,CST-1368DR,8288,11597,15422,0.050,551
2019-08-16T03:47:04,42.805,6.029,CST-1368DR,8288,11599,15425,0.049,551
2019-08-16T03:50:06,42.805,6.029,CST-1368DR,8288,11599,15425,0.049,551
2019-08-16T03:53:08,42.805,6.029,CST-1368DR,8288,11598,15423,0.050,551
2019-08-16T03:56:09,42.805,6.029,CST-1368DR,8288,11598,15424,0.049,551
2019-08-16T03:59:11,42.805,6.029,CST-1368DR,8288,11593,15417,0.051,551
2019-08-16T04:02:13,42.805,6.029,CST-1368DR,8288,11593,15417,0.051,550
2019-08-16T04:05:14,42.805,6.029,CST-1368DR,8288,11595,15419,0.051,551
2019-08-16T04:08:16,42.805,6.029,CST-1368DR,8288,11594,15418,0.051,551
2019-08-16T04:11:17,42.805,6.029,CST-1368DR,8288,11597,15423,0.050,550
2019-08-16T04:14:19,42.805,6.029,CST-1368DR,8288,11597,15422,0.050,551
2019-08-16T04:17:21,42.805,6.029,CST-1368DR,8288,11596,15421,0.050,551
2019-08-16T04:20:23,42.805,6.029,CST-1368DR,8288,11598,15423,0.050,550
2019-08-16T04:23:24,42.805,6.029,CST-1368DR,8288,11599,15424,0.049,551
2019-08-16T04:26:26,42.805,6.029,CST-1368DR,8288,11595,15420,0.051,551
2019-08-16T04:29:27,42.805,6.029,CST-1368DR,8288,11597,15422,0.050,551
2019-08-16T04:32:29,42.805,6.029,CST-1368DR,8288,11598,15423,0.050,551
2019-08-16T04:35:31,42.805,6.029,CST-1368DR,8288,11598,15423,0.050,550
2019-08-16T04:38:32,42.805,6.029,CST-1368DR,8288,11598,15423,0.050,551
2019-08-16T04:41:34,42.805,6.029,CST-1368DR,8288,11597,15423,0.050,551
2019-08-16T04:44:36,42.805,6.029,CST-1368DR,8288,11594,15418,0.051,551
2019-08-16T04:47:37,42.805,6.029,CST-1368DR,8288,11597,15422,0.050,551
2019-08-16T04:50:39,42.805,6.029,CST-1368DR,8288,11592,15415,0.052,551
2019-08-16T04:53:41,42.805,6.029,CST-1368DR,8287,11577,15397,0.056,551
2019-08-16T04:56:42,42.805,6.029,CST-1368DR,8288,11598,15423,0.050,551
2019-08-16T04:59:44,42.805,6.029,CST-1368DR,8288,11598,15423,0.050,551
2019-08-16T05:02:46,42.805,6.029,CST-1368DR,8287,11596,15422,0.050,551
2019-08-16T05:05:47,42.805,6.029,CST-1368DR,8287,11593,15419,0.051,551
2019-08-16T05:08:49,42.805,6.029,CST-1368DR,8287,11597,15424,0.049,551
2019-08-16T05:11:51,42.805,6.029,CST-1368DR,8287,11598,15425,0.049,551
2019-08-16T05:14:52,42.805,6.029,CST-1368DR,8287,11596,15422,0.050,551
2019-08-16T05:17:54,42.805,6.029,CST-1368DR,8287,11598,15425,0.049,551
2019-08-16T05:20:56,42.805,6.029,CST-1368DR,8287,11597,15424,0.049,551
2019-08-16T05:23:57,42.805,6.029,CST-1368DR,8287,11596,15423,0.050,550
2019-08-16T05:26:59,42.805,6.029,CST-1368DR,8287,11597,15423,0.050,551
2019-08-16T05:30:01,42.805,6.029,CST-1368DR,8287,11596,15423,0.050,550
2019-08-16T05:33:02,42.805,6.029,CST-1368DR,8287,11598,15425,0.049,551
2019-08-16T05:36:04,42.805,6.029,CST-1368DR,8287,11595,15422,0.050,551
2019-08-16T05:39:06,42.805,6.029,CST-1368DR,8287,11597,15424,0.049,551
2019-08-16T05:42:07,42.805,6.029,CST-1368DR,8287,11596,15423,0.050,550
2019-08-16T05:45:09,42.805,6.029,CST-1368DR,8287,11597,15424,0.049,551
2019-08-16T05:48:10,42.805,6.029,CST-1368DR,8287,11597,15424,0.049,551
2019-08-16T05:51:12,42.805,6.029,CST-1368DR,8287,11596,15423,0.050,551
2019-08-16T05:54:14,42.805,6.029,CST-1368DR,8287,11595,15421,0.050,551
2019-08-16T05:57:15,42.805,6.029,CST-1368DR,8287,11594,15419,0.051,551
2019-08-16T06:00:17,42.805,6.029,CST-1368DR,8287,11598,15425,0.049,550
2019-08-16T06:03:19,42.805,6.029,CST-1368DR,8287,11596,15423,0.050,551
2019-08-16T06:06:20,42.805,6.029,CST-1368DR,8287,11598,15425,0.049,551
2019-08-16T06:09:22,42.805,6.029,CST-1368DR,8287,11597,15423,0.050,551
2019-08-16T06:12:24,42.805,6.029,CST-1368DR,8287,11597,15424,0.049,551
2019-08-16T06:15:25,42.805,6.029,CST-1368DR,8287,11596,15423,0.050,551
2019-08-16T06:18:27,42.805,6.029,CST-1368DR,8287,11595,15421,0.050,550
2019-08-16T06:21:28,42.805,6.029,CST-1368DR,8287,11597,15424,0.049,551
2019-08-16T06:24:30,42.805,6.029,CST-1368DR,8287,11597,15424,0.049,551
2019-08-16T06:27:32,42.805,6.029,CST-1368DR,8287,11595,15421,0.050,551
2019-08-16T06:30:33,42.805,6.029,CST-1368DR,8287,11595,15422,0.050,551
2019-08-16T06:33:35,42.805,6.029,CST-1368DR,8287,11595,15421,0.050,550
2019-08-16T06:36:37,42.805,6.029,CST-1368DR,8287,11596,15423,0.050,551
2019-08-16T06:39:38,42.805,6.029,CST-1368DR,8287,11597,15423,0.050,551
2019-08-16T06:42:40,42.805,6.029,CST-1368DR,8287,11597,15423,0.050,551
2019-08-16T06:45:42,42.805,6.029,CST-1368DR,8287,11597,15423,0.050,551
2019-08-16T06:48:43,42.805,6.029,CST-1368DR,8287,11595,15422,0.050,551
2019-08-16T06:51:45,42.805,6.029,CST-1368DR,8286,11596,15424,0.049,551
2019-08-16T06:54:47,42.805,6.029,CST-1368DR,8286,11588,15413,0.052,550
2019-08-16T06:57:48,42.805,6.029,CST-1368DR,8286,11595,15423,0.050,551
2019-08-16T07:00:50,42.805,6.029,CST-1368DR,8286,11597,15425,0.049,551
2019-08-16T07:03:52,42.805,6.029,CST-1368DR,8287,11596,15423,0.050,551
2019-08-16T07:06:53,42.805,6.029,CST-1368DR,8287,11597,15423,0.050,551
2019-08-16T07:09:55,42.805,6.029,CST-1368DR,8286,11597,15426,0.049,551
2019-08-16T07:12:56,42.805,6.029,CST-1368DR,8286,11594,15421,0.050,551
2019-08-16T07:15:58,42.805,6.029,CST-1368DR,8286,11596,15424,0.049,551
2019-08-16T07:19:00,42.805,6.029,CST-1368DR,8286,11595,15422,0.050,551
2019-08-16T07:22:01,42.805,6.029,CST-1368DR,8286,11597,15425,0.049,551
2019-08-16T07:25:03,42.805,6.029,CST-1368DR,8286,11596,15424,0.049,551
2019-08-16T07:28:05,42.805,6.029,CST-1368DR,8286,11593,15420,0.051,551
2019-08-16T07:31:06,42.805,6.029,CST-1368DR,8286,11596,15424,0.049,551
2019-08-16T07:34:08,42.805,6.029,CST-1368DR,8286,11597,15426,0.049,551
2019-08-16T07:37:10,42.805,6.029,CST-1368DR,8286,11590,15417,0.051,551
2019-08-16T07:40:11,42.805,6.029,CST-1368DR,8286,11596,15424,0.049,551
2019-08-16T07:43:13,42.805,6.029,CST-1368DR,8286,11594,15421,0.050,550
2019-08-16T07:46:15,42.805,6.029,CST-1368DR,8286,11594,15422,0.050,551
2019-08-16T07:49:16,42.805,6.029,CST-1368DR,8286,11595,15423,0.050,550
2019-08-16T07:52:18,42.805,6.029,CST-1368DR,8286,11595,15422,0.050,551
2019-08-16T07:55:19,42.805,6.029,CST-1368DR,8286,11594,15422,0.050,551
2019-08-16T07:58:21,42.805,6.029,CST-1368DR,8286,11594,15421,0.050,551
2019-08-16T08:01:23,42.805,6.029,CST-1368DR,8286,11594,15421,0.050,551
2019-08-16T08:04:24,42.805,6.029,CST-1368DR,8286,11592,15419,0.051,550
2019-08-16T08:07:26,42.805,6.029,CST-1368DR,8286,11591,15417,0.051,551
2019-08-16T08:10:28,42.805,6.029,CST-1368DR,8286,11593,15421,0.050,551
2019-08-16T08:13:29,42.805,6.029,CST-1368DR,8286,11595,15423,0.050,551
2019-08-16T08:16:31,42.805,6.029,CST-1368DR,8286,11590,15416,0.052,551
2019-08-16T08:19:33,42.805,6.029,CST-1368DR,8285,11593,15422,0.050,551
2019-08-16T08:22:34,42.805,6.029,CST-1368DR,8285,11588,15416,0.052,551
2019-08-16T08:25:36,42.805,6.029,CST-1368DR,8285,11593,15422,0.050,551
2019-08-16T08:28:38,42.805,6.029,CST-1368DR,8285,11594,15424,0.049,551
2019-08-16T08:31:39,42.805,6.029,CST-1368DR,8285,11595,15424,0.049,551
2019-08-16T08:34:41,42.805,6.029,CST-1368DR,8286,11594,15421,0.050,551
2019-08-16T08:37:43,42.805,6.029,CST-1368DR,8285,11591,15419,0.051,551
2019-08-16T08:40:44,42.805,6.029,CST-1368DR,8285,11595,15424,0.049,551
2019-08-16T08:43:46,42.805,6.029,CST-1368DR,8285,11589,15417,0.051,551
2019-08-16T08:46:48,42.805,6.029,CST-1368DR,8285,11593,15422,0.050,551
2019-08-16T08:49:49,42.805,6.029,CST-1368DR,8285,11594,15423,0.050,551
2019-08-16T08:52:51,42.805,6.029,CST-1368DR,8285,11591,15419,0.051,551
2019-08-16T08:55:52,42.805,6.029,CST-1368DR,8285,11593,15422,0.050,551
2019-08-16T08:58:54,42.805,6.029,CST-1368DR,8285,11593,15422,0.050,550
2019-08-16T09:01:56,42.805,6.029,CST-1368DR,8285,11588,15415,0.052,551
2019-08-16T09:04:58,42.805,6.029,CST-1368DR,8285,11592,15421,0.050,551
2019-08-16T09:07:59,42.805,6.029,CST-1368DR,8285,11592,15420,0.051,551
2019-08-16T09:11:01,42.805,6.029,CST-1368DR,8285,11594,15423,0.050,550
2019-08-16T09:14:02,42.805,6.029,CST-1368DR,8285,11592,15421,0.050,551
2019-08-16T09:17:04,42.805,6.029,CST-1368DR,8285,11594,15423,0.050,551
2019-08-16T09:20:06,42.805,6.029,CST-1368DR,8285,11592,15421,0.050,551
2019-08-16T09:23:07,42.805,6.029,CST-1368DR,8285,11591,15419,0.051,551
2019-08-16T09:26:09,42.805,6.029,CST-1368DR,8285,11592,15421,0.050,551
2019-08-16T09:29:11,42.805,6.029,CST-1368DR,8285,11593,15422,0.050,551
2019-08-16T09:32:12,42.805,6.029,CST-1368DR,8285,11591,15420,0.051,551
2019-08-16T09:35:14,42.805,6.029,CST-1368DR,8285,11589,15416,0.052,550
2019-08-16T09:38:16,42.805,6.029,CST-1368DR,8285,11592,15420,0.051,551
2019-08-16T09:41:17,42.805,6.029,CST-1368DR,8285,11585,15412,0.053,551
2019-08-16T09:44:19,42.805,6.029,CST-1368DR,8284,11589,15419,0.051,551
2019-08-16T09:47:21,42.805,6.029,CST-1368DR,8285,11591,15420,0.051,551
2019-08-16T09:50:22,42.805,6.029,CST-1368DR,8285,11585,15411,0.053,551
2019-08-16T09:53:24,42.805,6.029,CST-1368DR,8285,11592,15420,0.051,551
2019-08-16T09:56:26,42.805,6.029,CST-1368DR,8285,11590,15418,0.051,551
2019-08-16T09:59:27,42.805,6.029,CST-1368DR,8284,11591,15420,0.051,551
2019-08-16T10:02:29,42.805,6.029,CST-1368DR,8284,11593,15424,0.049,551
2019-08-16T10:05:30,42.805,6.029,CST-1368DR,8284,11590,15419,0.051,550
2019-08-16T10:08:32,42.805,6.029,CST-1368DR,8284,11591,15421,0.050,550
2019-08-16T10:11:34,42.805,6.029,CST-1368DR,8284,11591,15421,0.050,551
2019-08-16T10:14:35,42.805,6.029,CST-1368DR,8284,11589,15418,0.051,551
2019-08-16T10:17:37,42.805,6.029,CST-1368DR,8284,11590,15419,0.051,551
2019-08-16T10:20:39,42.805,6.029,CST-1368DR,8284,11591,15421,0.050,551
2019-08-16T10:23:40,42.805,6.029,CST-1368DR,8284,11591,15421,0.050,551
2019-08-16T10:26:42,42.805,6.029,CST-1368DR,8284,11593,15424,0.049,551
2019-08-16T10:29:44,42.805,6.029,CST-1368DR,8284,11594,15424,0.049,550
2019-08-16T10:32:45,42.805,6.029,CST-1368DR,8284,11594,15425,0.049,551
2019-08-16T10:35:47,42.805,6.029,CST-1368DR,8284,11593,15423,0.050,551
2019-08-16T10:38:49,42.805,6.029,CST-1368DR,8284,11595,15426,0.049,550
2019-08-16T10:41:50,42.805,6.029,CST-1368DR,8284,11594,15424,0.049,551
2019-08-16T10:44:52,42.805,6.029,CST-1368DR,8284,11594,15425,0.049,551
2019-08-16T10:47:54,42.805,6.029,CST-1368DR,8284,11595,15426,0.049,551
2019-08-16T10:50:55,42.805,6.029,CST-1368DR,8284,11593,15424,0.049,551
2019-08-16T10:53:57,42.805,6.029,CST-1368DR,8284,11594,15425,0.049,550
2019-08-16T10:56:59,42.805,6.029,CST-1368DR,8284,11594,15425,0.049,551
2019-08-16T11:00:00,42.805,6.029,CST-1368DR,8284,11594,15425,0.049,551
2019-08-16T11:03:02,42.805,6.029,CST-1368DR,8284,11594,15425,0.049,551
2019-08-16T11:06:03,42.805,6.029,CST-1368DR,8284,11594,15425,0.049,551
2019-08-16T11:09:05,42.805,6.029,CST-1368DR,8284,11592,15423,0.050,550
2019-08-16T11:12:07,42.805,6.029,CST-1368DR,8284,11593,15424,0.049,551
2019-08-16T11:15:08,42.805,6.029,CST-1368DR,8284,11594,15424,0.049,551
2019-08-16T11:18:10,42.805,6.029,CST-1368DR,8284,11594,15424,0.049,551
2019-08-16T11:21:12,42.805,6.029,CST-1368DR,8284,11594,15425,0.049,551
2019-08-16T11:24:13,42.805,6.029,CST-1368DR,8283,11589,15421,0.050,551
2019-08-16T11:27:15,42.805,6.029,CST-1368DR,8283,11584,15414,0.052,551
2019-08-16T11:30:17,42.805,6.029,CST-1368DR,8283,11593,15426,0.049,551
2019-08-16T11:33:18,42.805,6.029,CST-1368DR,8283,11592,15424,0.049,551
2019-08-16T11:36:20,42.805,6.029,CST-1368DR,8283,11590,15422,0.050,551
2019-08-16T11:39:22,42.805,6.029,CST-1368DR,8283,11593,15426,0.049,550
2019-08-16T11:42:23,42.805,6.029,CST-1368DR,8283,11591,15423,0.050,551
2019-08-16T11:45:25,42.805,6.029,CST-1368DR,8283,11593,15425,0.049,550
2019-08-16T11:48:27,42.805,6.029,CST-1368DR,8283,11590,15422,0.050,550
2019-08-16T11:51:28,42.805,6.029,CST-1368DR,8283,11593,15426,0.049,550
2019-08-16T11:54:30,42.805,6.029,CST-1368DR,8283,11592,15425,0.049,551
2019-08-16T11:57:32,42.805,6.029,CST-1368DR,8283,11592,15424,0.049,551
2019-08-16T12:00:33,42.805,6.029,CST-1368DR,8283,11588,15418,0.051,551
2019-08-16T12:03:35,42.805,6.029,CST-1368DR,8283,11588,15419,0.051,551
2019-08-16T12:06:36,42.805,6.029,CST-1368DR,8283,11591,15423,0.050,551
2019-08-16T12:09:38,42.805,6.029,CST-1368DR,8283,11592,15425,0.049,551
2019-08-16T12:12:40,42.805,6.029,CST-1368DR,8283,11592,15424,0.049,551
2019-08-16T12:15:41,42.805,6.029,CST-1368DR,8283,11591,15423,0.050,551
2019-08-16T12:18:43,42.805,6.029,CST-1368DR,8283,11589,15421,0.050,550
2019-08-16T12:21:45,42.805,6.029,CST-1368DR,8283,11593,15426,0.049,551
2019-08-16T12:24:46,42.805,6.029,CST-1368DR,8283,11592,15424,0.049,551
2019-08-16T12:27:48,42.805,6.029,CST-1368DR,8283,11592,15424,0.049,551
2019-08-16T12:30:50,42.805,6.029,CST-1368DR,8283,11591,15423,0.050,551
2019-08-16T12:33:51,42.805,6.029,CST-1368DR,8283,11587,15417,0.051,551
2019-08-16T12:36:53,42.805,6.029,CST-1368DR,8283,11591,15423,0.050,551
2019-08-16T12:39:55,42.805,6.029,CST-1368DR,8283,11593,15426,0.049,551
2019-08-16T12:42:56,42.805,6.029,CST-1368DR,8283,11589,15420,0.051,551
2019-08-16T12:45:58,42.805,6.029,CST-1368DR,8283,11591,15423,0.050,550
2019-08-16T12:48:59,42.805,6.029,CST-1368DR,8283,11592,15424,0.049,550
2019-08-16T12:52:01,42.805,6.029,CST-1368DR,8283,11591,15423,0.050,551
2019-08-16T12:55:03,42.805,6.029,CST-1368DR,8283,11591,15423,0.050,551
2019-08-16T12:58:04,42.805,6.029,CST-1368DR,8283,11591,15423,0.050,551
2019-08-16T13:01:06,42.805,6.029,CST-1368DR,8283,11593,15425,0.049,551
2019-08-16T13:04:08,42.805,6.029,CST-1368DR,8283,11589,15420,0.051,550
2019-08-16T13:07:09,42.805,6.029,CST-1368DR,8283,11590,15422,0.050,551
2019-08-16T13:10:11,42.805,6.029,CST-1368DR,8283,11591,15423,0.050,551
2019-08-16T13:13:13,42.805,6.029,CST-1368DR,8283,11589,15421,0.050,551
2019-08-16T13:16:14,42.805,6.029,CST-1368DR,8283,11592,15424,0.049,551
2019-08-16T13:19:16,42.805,6.029,CST-1368DR,8283,11593,15425,0.049,551
2019-08-16T13:22:18,42.805,6.029,CST-1368DR,8282,11591,15425,0.049,550
2019-08-16T13:25:19,42.805,6.029,CST-1368DR,8282,11592,15425,0.049,551
2019-08-16T13:28:21,42.805,6.029,CST-1368DR,8282,11591,15425,0.049,551
2019-08-16T13:31:23,42.805,6.029,CST-1368DR,8282,11594,15428,0.048,550
2019-08-16T13:34:24,42.805,6.029,CST-1368DR,8282,11593,15427,0.049,551
2019-08-16T13:37:26,42.805,6.029,CST-1368DR,8282,11593,15427,0.049,551
2019-08-16T13:40:28,42.805,6.029,CST-1368DR,8282,11591,15424,0.049,551
2019-08-16T13:43:30,42.805,6.029,CST-1368DR,8282,11590,15424,0.049,551
2019-08-16T13:46:31,42.805,6.029,CST-1368DR,8282,11588,15421,0.050,551
2019-08-16T13:49:33,42.805,6.029,CST-1368DR,8282,11590,15423,0.050,551
2019-08-16T13:52:34,42.805,6.029,CST-1368DR,8282,11590,15423,0.050,551
2019-08-16T13:55:36,42.805,6.029,CST-1368DR,8282,11583,15414,0.052,551
2019-08-16T13:58:38,42.805,6.029,CST-1368DR,8282,11588,15421,0.050,551
2019-08-16T14:01:39,42.805,6.029,CST-1368DR,8282,11589,15422,0.050,551
2019-08-16T14:04:41,42.805,6.029,CST-1368DR,8282,11593,15428,0.048,551
2019-08-16T14:07:43,42.805,6.029,CST-1368DR,8282,11584,15416,0.052,551
2019-08-16T14:10:44,42.805,6.029,CST-1368DR,8282,11591,15425,0.049,551
2019-08-16T14:13:46,42.805,6.029,CST-1368DR,8282,11591,15425,0.049,551
2019-08-16T14:16:48,42.805,6.029,CST-1368DR,8282,11587,15419,0.051,551
2019-08-16T14:19:49,42.805,6.029,CST-1368DR,8282,11591,15425,0.049,551
2019-08-16T14:22:51,42.805,6.029,CST-1368DR,8282,11589,15422,0.050,551
2019-08-16T14:25:53,42.805,6.029,CST-1368DR,8282,11591,15425,0.049,550
2019-08-16T14:28:54,42.805,6.029,CST-1368DR,8282,11582,15412,0.053,551
2019-08-16T14:31:56,42.805,6.029,CST-1368DR,8281,11591,15426,0.049,551
2019-08-16T14:34:57,42.805,6.029,CST-1368DR,8281,11589,15423,0.050,551
2019-08-16T14:37:59,42.805,6.029,CST-1368DR,8281,11585,15418,0.051,551
2019-08-16T14:41:01,42.805,6.029,CST-1368DR,8281,11590,15425,0.049,551
2019-08-16T14:44:02,42.805,6.029,CST-1368DR,8281,11591,15426,0.049,551
2019-08-16T14:47:04,42.805,6.029,CST-1368DR,8281,11589,15424,0.049,551
2019-08-16T14:50:06,42.805,6.029,CST-1368DR,8281,11591,15426,0.049,551
2019-08-16T14:53:07,42.805,6.029,CST-1368DR,8281,11590,15425,0.049,551
2019-08-16T14:56:09,42.805,6.029,CST-1368DR,8281,11585,15419,0.051,551
2019-08-16T14:59:11,42.805,6.029,CST-1368DR,8281,11582,15414,0.052,551
2019-08-16T15:02:12,42.805,6.029,CST-1368DR,8281,11588,15422,0.050,551
2019-08-16T15:05:14,42.805,6.029,CST-1368DR,8281,11587,15421,0.050,551
2019-08-16T15:08:15,42.805,6.029,CST-1368DR,8281,11582,15414,0.052,551
2019-08-16T15:11:17,42.805,6.029,CST-1368DR,8281,11588,15423,0.050,551
2019-08-16T15:14:19,42.805,6.029,CST-1368DR,8281,11588,15422,0.050,551
2019-08-16T15:17:20,42.805,6.029,CST-1368DR,8281,11592,15427,0.049,551
2019-08-16T15:20:22,42.805,6.029,CST-1368DR,8281,11588,15422,0.050,551
2019-08-16T15:23:24,42.805,6.029,CST-1368DR,8281,11586,15420,0.051,551
2019-08-16T15:26:26,42.805,6.029,CST-1368DR,8281,11587,15421,0.050,551
2019-08-16T15:29:27,42.805,6.029,CST-1368DR,8281,11590,15425,0.049,551
2019-08-16T15:32:29,42.805,6.029,CST-1368DR,8281,11590,15425,0.049,551
2019-08-16T15:35:30,42.805,6.029,CST-1368DR,8281,11589,15424,0.049,551
2019-08-16T15:38:32,42.805,6.029,CST-1368DR,8281,11589,15424,0.049,551
2019-08-16T15:41:34,42.805,6.029,CST-1368DR,8281,11590,15425,0.049,550
2019-08-16T15:44:35,42.805,6.029,CST-1368DR,8281,11590,15425,0.049,550
2019-08-16T15:47:37,42.805,6.029,CST-1368DR,8281,11582,15414,0.052,551
2019-08-16T15:50:39,42.805,6.029,CST-1368DR,8281,11589,15423,0.050,551
2019-08-16T15:53:40,42.805,6.029,CST-1368DR,8280,11587,15423,0.050,551
2019-08-16T15:56:42,42.805,6.029,CST-1368DR,8281,11583,15416,0.052,551
2019-08-16T15:59:44,42.805,6.029,CST-1368DR,8281,11589,15423,0.050,551
2019-08-16T16:02:45,42.805,6.029,CST-1368DR,8281,11588,15422,0.050,551
2019-08-16T16:05:47,42.805,6.029,CST-1368DR,8281,11588,15423,0.050,551
2019-08-16T16:08:48,42.805,6.029,CST-1368DR,8280,11588,15424,0.049,550
2019-08-16T16:11:50,42.805,6.029,CST-1368DR,8280,11589,15425,0.049,551
2019-08-16T16:14:52,42.805,6.029,CST-1368DR,8280,11587,15423,0.050,551
2019-08-16T16:17:53,42.805,6.029,CST-1368DR,8280,11585,15420,0.051,551
2019-08-16T16:20:55,42.805,6.029,CST-1368DR,8280,11587,15422,0.050,551
2019-08-16T16:23:57,42.805,6.029,CST-1368DR,8280,11588,15424,0.049,551
2019-08-16T16:26:58,42.805,6.029,CST-1368DR,8280,11587,15422,0.050,550
2019-08-16T16:30:00,42.805,6.029,CST-1368DR,8280,11588,15423,0.050,551
2019-08-16T16:33:02,42.805,6.029,CST-1368DR,8280,11588,15424,0.049,551
2019-08-16T16:36:03,42.805,6.029,CST-1368DR,8280,11588,15424,0.049,551